Showing default

SJ-31, 69570

Orbit data source: Space-Track

SJ-31, 69570 is a Chinese payload satellite in HEO that was launched on Tue, 16 Jun 2026 UTC via a CHANG ZHENG 3B launch vehicle from the Xichang Space Center, China (XSC). Payload-class satellites include a variety of spacecraft equipped with specific instruments for various scientific and technological missions. These include communications satellites like Starlink; space stations such as the ISS; scientific satellites like the Hubble; Earth observation satellites from companies like Planet Labs, Umbra, and HawkEye 360; GPS; miniature CubeSats for education and research; and military/defense satellites.

Loading next visibility...
Identifier
69570, 2026-136A
Orbit
HEO
Country
Flag of CNCN / PRC
Related business
Manufacturer
SAST
Mission
Operational spacecraft
Bus & Motor
TJS13, Unknown motor
Mass
~5,000 kg wet, ~2,500 kg dry
Launch date (UTC)
2026-06-16 (3 days ago)
Launch vehicle
CHANG ZHENG 3B
Launch site
Xichang Space Center, China (XSC)
Object type
Payload
Rocket body
Debris
Shape & HBR
Unknown
Radar Cross Section
RCS unknown

Expand to show TLE details & history
Last TLE update: 3 days ago

TLE from 3 days ago
0 SJ-31
1 69570U 26136A   26167.84805573  .00006163  24751-6  28088-3 0  9997
2 69570  63.4649 356.1810 7310406 171.7246 356.2040  2.28095748    54
Epoch: 2026-06-16T20:21Z
TLE epoch observation values (Epoch: 2026-06-16T20:21:12.015Z)
Latitude
36.69129°
Longitude
-56.01568°
Altitude
698.931 km
Speed
9.819 km/s
True Right ascension
10h 17m 35s
True Declination
36° 31' 31"
Sunlit
Object was in daylight at epoch
Visualization orbit readout
Latitude
Unknown
Longitude
Unknown
Altitude
Unknown
Speed
Unknown
Apparent Right ascension
Unknown
Apparent Declination
Unknown
Sunlit
N/A
Visualization observer readout
Local Sidereal Time
05:49:00
Azimuth
Unknown
Elevation
Unknown
Doppler factor
Unknown
Orbital elements
Apogee altitude
35,818.474 km
Perigee altitude
178.136 km
Semi-major axis
24,376.442 km
Eccentricity
0.73104
Inclination
63.4649°
RAAN
356.181°
Arg. of periapsis
171.7246°
True anomaly
325.9713°
Mean anomaly
356.204°
Eccentric anomaly
346.24447°
Mean motion
0.57028 °/min
Orbital period
631.27 mins
BSTAR
0.00028088
Loading maneuver chart data...
Computing Atmospheric mass density...
Loading historical data...
Loading historical data...
Loading historical data...
Loading historical data...
Loading historical data...
Loading historical data...
Loading historical data...
Other satellites on launch #136 in the year 2026 (2026-06-16 UTC)

Documentation

Showing up to 5 results
|